[[{"header":{"parameterUnit":"m.s-1","parameterCategory":1,"la1":30.2991,"la2":30.254,"lo1":-89.0895,"lo2":-89.0444,"dy":0.0017,"dx":0.0017,"nx":28,"ny":28,"refTime":"2025-07-26T03:00:00:Z","depth":0,"parameterNumber":2,"parameterNumberName":"U-component_of_WINDS"},"data":[0,0,0,0,0,0,0,0,0,0,0,0,0,0,0,0,0,0,0,0,0,0,0,0,0,0,0,0,0,0,0,0,0,0,0,0,0,0,0,0,0,0,0,0,0,0,0,0,0,0,0,0,0,0,0,0,0,0,0.2183,0.2184,0,0.2294,0.2295,0.2296,0.232,0.2319,0.2318,0.2317,0.2434,0.2438,0.2442,0,0,0,0,0,0,0,0,0,0,0,0,0,0.1993,0.1996,0.2183,0.2184,0.2185,0.2294,0.2295,0.2297,0.232,0.2319,0.2318,0.2317,0.2433,0.2438,0.2442,0,0,0,0,0,0,0,0,0,0,0,0,0,0.2087,0.1997,0.2182,0.221,0.2214,0.2293,0.2295,0.2297,0.232,0.2319,0.2318,0.2316,0.2431,0.2437,0.2443,0.2504,0,0,0.2461,0.2463,0,0,0,0,0,0,0,0,0.2081,0.2094,0.2205,0.2208,0.2212,0.2292,0.2271,0.2367,0.232,0.228,0.2317,0.2316,0.2388,0.2397,0.2421,0.251,0.2515,0.2461,0.2465,0.2467,0.2469,0,0,0,0,0,0,0,0.2075,0.2089,0.2227,0.2206,0.2211,0.2218,0.223,0.2289,0.234,0.2283,0.2285,0.2298,0.239,0.2415,0.2424,0.2516,0.2461,0.2466,0.247,0.2472,0.266,0.2661,0,0,0,0,0,0,0.2063,0.2083,0.2223,0.223,0.2142,0.2222,0.2235,0.2268,0.2339,0.2349,0.2299,0.2299,0.2406,0.2417,0.2428,0.2504,0.2467,0.2473,0.2476,0.2658,0.266,0.2662,0,0,0,0,0,0,0.2059,0.2075,0.2219,0.2157,0.2176,0.2227,0.2263,0.227,0.2296,0.2351,0.236,0.2315,0.2405,0.242,0.2485,0.2509,0.2475,0.2481,0.2657,0.2659,0.2661,0.2657,0,0,0,0,0,0,0.2053,0.2074,0.2097,0.2158,0.2179,0.2273,0.2264,0.2273,0.2305,0.2306,0.2369,0.2378,0.2406,0.2476,0.249,0.2516,0.2485,0.2655,0.2658,0.266,0.2655,0.2658,0.2661,0,0,0,0,0,0.2046,0.2092,0.2098,0.2115,0.2209,0.2274,0.2287,0.2316,0.2307,0.2331,0.2367,0.2376,0.2503,0.2482,0.2499,0.2527,0.2653,0.2657,0.266,0.2653,0.2658,0.2661,0,0,0,0,0,0,0.2034,0.2101,0.2108,0.2175,0.2218,0.2278,0.2309,0.232,0.2368,0.2367,0.2403,0.2417,0.2479,0.251,0.2485,0.2589,0.2578,0.2585,0.2567,0.2572,0.2575,0.2567,0.249,0,0,0,0,0,0.2039,0.2085,0.2141,0.2195,0.2216,0.2259,0.2288,0.2307,0.2354,0.2373,0.2413,0.246,0.251,0.2542,0.2592,0.2659,0.2673,0.2686,0.2689,0.2692,0.2697,0.2735,0.2741,0.2673,0.2673,0.2673,0,0,0.205,0.2092,0.2119,0.2193,0.2229,0.2277,0.2274,0.2325,0.2361,0.2381,0.2444,0.2475,0.2529,0.2595,0.2626,0.2622,0.2719,0.2696,0.2698,0.2702,0.2739,0.2745,0.2751,0.2675,0.2675,0.2674,0,0,0.2094,0.2131,0.2179,0.2215,0.2269,0.2297,0.2308,0.2366,0.2387,0.245,0.2467,0.251,0.2596,0.2634,0.2664,0.2721,0.2732,0.2736,0.2754,0.2789,0.2795,0.28,0.282,0.2827,0.2742,0.2742,0.2742,0,0.2102,0.2173,0.2202,0.2252,0.2284,0.2303,0.2352,0.2386,0.2454,0.2476,0.247,0.2578,0.2616,0.269,0.2704,0.2728,0.2742,0.273,0.2791,0.2797,0.2802,0.2821,0.2829,0.2742,0.2742,0.2742,0.2742,0,0.2179,0.2228,0.2261,0.2324,0.236,0.2409,0.2446,0.2479,0.2495,0.2523,0.2587,0.2633,0.2692,0.2711,0.2727,0.2788,0.2783,0.2784,0.2774,0.2808,0.2827,0.2835,0.2742,0.2742,0.2742,0.2742,0,0,0.222,0.2298,0.2309,0.2338,0.2399,0.2438,0.2488,0.2544,0.2571,0.2617,0.266,0.2732,0.2732,0.2767,0.2787,0.2819,0.286,0.2816,0.2817,0.2822,0.293,0.2929,0.2937,0.2867,0.2869,0.287,0.2925,0,0.2271,0.236,0.2387,0.2462,0.2508,0.2526,0.257,0.2612,0.264,0.2683,0.2714,0.2764,0.2761,0.2782,0.2814,0.2848,0.2882,0.2845,0.2908,0.291,0.2894,0.2947,0.2947,0.2996,0.2933,0.2934,0.2935,0,0.2344,0.2389,0.2468,0.2522,0.2542,0.2581,0.2634,0.2675,0.2723,0.2741,0.2779,0.2796,0.285,0.2835,0.2909,0.2883,0.291,0.2931,0.2934,0.2941,0.2925,0.2956,0.3013,0.302,0.2947,0.2946,0.2945,0,0.2365,0.2446,0.2504,0.2528,0.2593,0.2619,0.2647,0.2694,0.2726,0.2772,0.2793,0.2846,0.2875,0.2915,0.2947,0.2934,0.3018,0.3007,0.3035,0.3034,0.3052,0.305,0.3114,0.3069,0.3069,0.3069,0.3069,0,0.242,0.2467,0.2514,0.255,0.2603,0.2634,0.2687,0.2716,0.2757,0.2799,0.2818,0.2857,0.2896,0.294,0.2966,0.3023,0.3036,0.3052,0.3058,0.305,0.3048,0.3069,0.3067,0.3071,0.3071,0.307,0.307,0,0.2453,0.2486,0.255,0.2605,0.262,0.2657,0.2705,0.274,0.2768,0.2821,0.2835,0.2879,0.2932,0.2967,0.3035,0.3052,0.3114,0.3119,0.3097,0.31,0.3126,0.3123,0.3206,0.3218,0.3165,0.3165,0.3165,0,0.2486,0.2523,0.2581,0.261,0.2638,0.2684,0.2716,0.2748,0.2781,0.2838,0.2866,0.292,0.2964,0.3048,0.3087,0.3139,0.3145,0.3171,0.3153,0.3144,0.3146,0.3143,0.3147,0.3173,0.3174,0.3174,0.3174,0,0.2541,0.2555,0.26,0.265,0.2687,0.2729,0.2771,0.2793,0.2833,0.2868,0.2922,0.2956,0.3025,0.3078,0.3133,0.3163,0.3175,0.3179,0.3189,0.3181,0.3167,0.3175,0.3105,0.3178,0.3177,0.3177,0.3177,0.3177,0.2575,0.2608,0.2654,0.2703,0.2738,0.2776,0.2811,0.2843,0.2888,0.2945,0.2961,0.3017,0.3064,0.3139,0.317,0.3214,0.3211,0.3225,0.3228,0.3231,0.3231,0.3159,0.3224,0.3224,0.3224,0.3224,0.3224,0,0.263,0.266,0.2705,0.2762,0.2801,0.2808,0.2854,0.2886,0.2935,0.2977,0.302,0.3081,0.3132,0.3174,0.3227,0.3255,0.3262,0.3267,0.3266,0.3272,0.323,0.3217,0.3261,0.3261,0.3261,0.3261,0.3261,0.3261,0.2664,0.272,0.2739,0.2813,0.2843,0.2897,0.2923,0.2958,0.2992,0.3059,0.3101,0.3127,0.317,0.3226,0.3273,0.3284,0.3303,0.3307,0.332,0.328,0.3276,0.3272,0.3259,0.3311,0.3311,0.3358,0.3358,0.3359]},{"header":{"parameterUnit":"m.s-1","parameterCategory":1,"la1":30.2991,"la2":30.254,"lo1":-89.0895,"lo2":-89.0444,"dy":0.0017,"dx":0.0017,"nx":28,"ny":28,"refTime":"2025-07-26T03:00:00:Z","depth":0,"parameterNumber":3,"parameterNumberName":"V-component_of_WINDS"},"data":[0,0,0,0,0,0,0,0,0,0,0,0,0,0,0,0,0,0,0,0,0,0,0,0,0,0,0,0,0,0,0,0,0,0,0,0,0,0,0,0,0,0,0,0,0,0,0,0,0,0,0,0,0,0,0,0,0,0,2.1047,2.1046,0,2.0988,2.0987,2.0986,2.099,2.0991,2.0991,2.0992,2.0927,2.0924,2.0922,0,0,0,0,0,0,0,0,0,0,0,0,0,2.1158,2.1156,2.1047,2.1046,2.1045,2.0988,2.0987,2.0986,2.099,2.0991,2.0992,2.0993,2.0928,2.0925,2.0922,0,0,0,0,0,0,0,0,0,0,0,0,0,2.1105,2.1155,2.1047,2.104,2.1039,2.0988,2.0987,2.0986,2.0989,2.0991,2.0992,2.0993,2.0929,2.0925,2.0921,2.0871,0,0,2.0909,2.0908,0,0,0,0,0,0,0,0,2.1108,2.1101,2.1042,2.1041,2.1039,2.0998,2.1002,2.0947,2.0989,2.1008,2.0992,2.0994,2.0949,2.0944,2.0929,2.0868,2.0865,2.0909,2.0907,2.0905,2.0904,0,0,0,0,0,0,0,2.1112,2.1104,2.1023,2.1041,2.1039,2.1039,2.1033,2.0992,2.0972,2.1007,2.1007,2.1,2.0948,2.0933,2.0928,2.0864,2.0909,2.0906,2.0903,2.0902,2.0758,2.0756,0,0,0,0,0,0,2.1118,2.1107,2.1025,2.1022,2.1078,2.1036,2.1029,2.1009,2.0972,2.0968,2.0999,2.1,2.0939,2.0932,2.0926,2.0863,2.0905,2.0902,2.0899,2.0759,2.0757,2.0756,0,0,0,0,0,0,2.112,2.111,2.1028,2.1064,2.1054,2.1032,2.1011,2.1008,2.0992,2.0966,2.0962,2.0987,2.094,2.0931,2.0885,2.0861,2.09,2.0896,2.0761,2.0759,2.0756,2.0739,0,0,0,0,0,0,2.1123,2.1111,2.1093,2.1064,2.1052,2.0989,2.1009,2.1006,2.0986,2.0988,2.0954,2.095,2.094,2.089,2.0881,2.0857,2.0893,2.0763,2.076,2.0757,2.0742,2.0737,2.0732,0,0,0,0,0,2.1127,2.109,2.1092,2.1082,2.1029,2.0988,2.0981,2.0971,2.0985,2.0965,2.0948,2.0951,2.0866,2.0886,2.0875,2.0849,2.0764,2.0761,2.0757,2.0744,2.0738,2.0732,0,0,0,0,0,0,2.1116,2.1086,2.1088,2.1041,2.1017,2.0989,2.0964,2.0965,2.0936,2.0938,2.0926,2.0919,2.0872,2.0856,2.0879,2.0798,2.0816,2.0811,2.081,2.0804,2.0799,2.0803,2.089,0,0,0,0,0,2.1108,2.1079,2.1054,2.1014,2.1002,2.0985,2.0967,2.0962,2.0936,2.0925,2.0905,2.0879,2.0846,2.0824,2.0793,2.074,2.0732,2.0717,2.0712,2.0709,2.0703,2.0672,2.0665,2.0744,2.0744,2.0744,0,0,2.1091,2.1071,2.1053,2.1011,2.0992,2.096,2.0977,2.0942,2.0918,2.092,2.0875,2.0859,2.0829,2.0779,2.0756,2.0764,2.068,2.0704,2.0701,2.0698,2.0668,2.066,2.0654,2.0742,2.0742,2.0743,0,0,2.1043,2.1026,2.0991,2.0972,2.0943,2.0932,2.0924,2.0895,2.0885,2.084,2.084,2.0811,2.0755,2.0732,2.0714,2.0658,2.0658,2.0648,2.0622,2.0592,2.0586,2.058,2.0558,2.0551,2.0643,2.0643,2.0643,0,2.1025,2.0979,2.0972,2.0937,2.0918,2.092,2.0883,2.0864,2.0826,2.0812,2.0823,2.0752,2.0731,2.0675,2.0662,2.0647,2.0636,2.065,2.0588,2.0582,2.0577,2.0555,2.0548,2.0641,2.0642,2.0642,2.0642,0,2.0957,2.0924,2.0899,2.0863,2.0842,2.0806,2.0792,2.077,2.0767,2.0755,2.0708,2.0684,2.0647,2.0634,2.063,2.0577,2.0583,2.0591,2.0608,2.0568,2.0548,2.054,2.064,2.064,2.064,2.0641,0,0,2.0899,2.0861,2.0851,2.0835,2.0803,2.0777,2.0741,2.0706,2.0687,2.0661,2.0629,2.0581,2.0588,2.0567,2.0561,2.0535,2.049,2.0546,2.0545,2.0535,2.0428,2.0421,2.0412,2.0491,2.049,2.0489,2.043,0,2.0846,2.0784,2.0777,2.072,2.0689,2.069,2.0659,2.0635,2.0622,2.0592,2.0578,2.0544,2.0557,2.0544,2.0519,2.0501,2.0468,2.0506,2.0459,2.0458,2.0465,2.0401,2.0394,2.0339,2.0422,2.0421,2.042,0,2.0777,2.075,2.069,2.0663,2.0649,2.0621,2.0588,2.0561,2.0533,2.0525,2.0502,2.0499,2.046,2.0481,2.0425,2.0451,2.0432,2.042,2.0418,2.0411,2.0435,2.0391,2.0322,2.0313,2.0408,2.0409,2.041,0,2.0738,2.0687,2.0644,2.063,2.0598,2.0577,2.0562,2.0537,2.0516,2.0487,2.0473,2.0439,2.042,2.0393,2.038,2.0397,2.0324,2.0345,2.0315,2.0315,2.0298,2.0299,2.0223,2.0289,2.0289,2.0289,2.029,0,2.0679,2.0642,2.0626,2.06,2.0558,2.055,2.0508,2.0494,2.0471,2.044,2.044,2.041,2.0397,2.0365,2.0355,2.0309,2.0301,2.0292,2.0289,2.0291,2.0292,2.0277,2.0279,2.0287,2.0288,2.0288,2.0289,0,2.0628,2.0616,2.057,2.0543,2.0535,2.0505,2.0481,2.0455,2.0443,2.0404,2.0394,2.0375,2.0337,2.0323,2.0277,2.027,2.0217,2.0218,2.0226,2.0225,2.0195,2.0198,2.0105,2.0091,2.0169,2.0168,2.0167,0,2.059,2.0562,2.0532,2.0513,2.0497,2.0466,2.0445,2.0435,2.0413,2.038,2.0357,2.032,2.029,2.023,2.021,2.0175,2.0174,2.0144,2.0168,2.0171,2.0171,2.0172,2.0168,2.0139,2.0138,2.0137,2.0137,0,2.0524,2.0519,2.049,2.0459,2.0434,2.0408,2.0383,2.0367,2.0353,2.0328,2.0291,2.0267,2.0221,2.0184,2.0147,2.013,2.013,2.013,2.012,2.0121,2.0126,2.0121,2.0212,2.0131,2.0132,2.0132,2.0133,2.0133,2.0477,2.0451,2.0426,2.0393,2.0374,2.035,2.0324,2.0309,2.0278,2.024,2.0237,2.0196,2.0168,2.012,2.0101,2.0068,2.0075,2.0062,2.0059,2.0055,2.0052,2.0133,2.0061,2.0061,2.0061,2.0062,2.0062,0,2.0408,2.0393,2.0363,2.0328,2.0302,2.0307,2.0279,2.0256,2.0221,2.0196,2.0167,2.0123,2.0087,2.0065,2.0028,2.0005,2.0004,1.9996,1.9996,1.9992,2.0048,2.0059,1.9997,1.9997,1.9997,1.9997,1.9997,1.9997,2.037,2.0326,2.0319,2.0265,2.0249,2.021,2.0194,2.0172,2.0152,2.0103,2.0074,2.006,2.0036,1.9997,1.9964,1.9958,1.9944,1.9934,1.9929,1.9981,1.9988,1.9994,2.0004,1.9932,1.9931,1.9874,1.9874,1.9874]}]]